• In Hungary
  • List of Countries
  • For 7 days
  • Water Temperature
  • Satellite Maps
  • Weather Map
  • News
  • Weather Widgets
  • user-avatar
    Login

    Hourly Weather Yakshimbetovo

    Today, 14 November, Wednesday

    Time Temperature Precipitation Wind Pressure Humidity
    00:00 -7°C° 0 mm 2 mps 767 mmHg 50%
    01:00 -7°C° 0 mm 2 mps 766 mmHg 49%
    02:00 -8°C° 0 mm 2 mps 766 mmHg 49%
    03:00 -8°C° 0 mm 2 mps 766 mmHg 49%
    04:00 -8°C° 0 mm 2 mps 766 mmHg 51%
    05:00 -7°C° 0 mm 1 mps 766 mmHg 50%
    06:00 -7°C° 0 mm 1 mps 765 mmHg 50%
    07:00 -7°C° 0 mm 1 mps 765 mmHg 50%
    08:00 -6°C° 0 mm 1 mps 765 mmHg 47%
    09:00 -6°C° 0 mm 1 mps 765 mmHg 45%
    10:00 -4°C° 0 mm 1 mps 765 mmHg 42%
    11:00 -3°C° 0 mm 1 mps 765 mmHg 40%
    12:00 -4°C° 0 mm 2 mps 765 mmHg 38%
    13:00 -4°C° 0 mm 2 mps 764 mmHg 37%
    14:00 -2°C° 0 mm 1 mps 764 mmHg 40%
    15:00 -3°C° 0 mm 1 mps 764 mmHg 43%
    16:00 -3°C° 0 mm 1 mps 764 mmHg 48%
    17:00 -4°C° 0 mm 1 mps 764 mmHg 49%
    18:00 -4°C° 0 mm 1 mps 764 mmHg 49%
    19:00 -4°C° 0 mm 1 mps 764 mmHg 50%
    20:00 -6°C° 0 mm 1 mps 764 mmHg 50%
    21:00 -6°C° 0 mm 1 mps 764 mmHg 49%
    22:00 -6°C° 0 mm 1 mps 764 mmHg 49%
    23:00 -6°C° 0 mm 1 mps 764 mmHg 48%

    Tomorrow, 15 November, Thursday

    Time Temperature Precipitation Wind Pressure Humidity
    00:00 -6°C° 0 mm 1 mps 764 mmHg 48%
    01:00 -6°C° 0 mm 1 mps 764 mmHg 47%
    02:00 -6°C° 0 mm 1 mps 764 mmHg 47%
    03:00 -6°C° 0 mm 1 mps 764 mmHg 46%
    04:00 -6°C° 0 mm 1 mps 764 mmHg 46%
    05:00 -7°C° 0 mm 1 mps 764 mmHg 46%
    06:00 -7°C° 0 mm 1 mps 764 mmHg 46%
    07:00 -7°C° 0 mm 1 mps 764 mmHg 46%
    08:00 -6°C° 0 mm 1 mps 764 mmHg 45%
    09:00 -4°C° 0 mm 1 mps 764 mmHg 43%
    10:00 -3°C° 0 mm 1 mps 764 mmHg 42%
    11:00 -2°C° 0 mm 1 mps 764 mmHg 40%
    12:00 -1°C° 0 mm 1 mps 764 mmHg 38%
    13:00 -1°C° 0 mm 1 mps 764 mmHg 35%
    14:00 -1°C° 0 mm 1 mps 765 mmHg 39%
    15:00 -2°C° 0 mm 1 mps 765 mmHg 42%
    16:00 -2°C° 0 mm 1 mps 765 mmHg 45%
    17:00 -3°C° 0 mm 1 mps 765 mmHg 45%
    18:00 -3°C° 0 mm 1 mps 765 mmHg 46%
    19:00 -6°C° 0 mm 2 mps 765 mmHg 47%
    20:00 -4°C° 0 mm 1 mps 765 mmHg 47%
    21:00 -4°C° 0 mm 1 mps 765 mmHg 47%
    22:00 -4°C° 0 mm 1 mps 765 mmHg 48%
    23:00 -4°C° 0 mm 1 mps 766 mmHg 48%

    Day after tomorrow, 16 November, Friday

    Time Temperature Precipitation Wind Pressure Humidity
    00:00 -4°C° 0 mm 1 mps 766 mmHg 48%
    01:00 -4°C° 0 mm 1 mps 766 mmHg 48%
    02:00 -4°C° 0 mm 1 mps 766 mmHg 48%
    03:00 -6°C° 0 mm 1 mps 766 mmHg 48%
    04:00 -6°C° 0 mm 1 mps 766 mmHg 48%
    05:00 -6°C° 0 mm 1 mps 766 mmHg 48%
    06:00 -6°C° 0 mm 1 mps 766 mmHg 48%
    07:00 -6°C° 0 mm 1 mps 766 mmHg 49%
    08:00 -4°C° 0 mm 1 mps 766 mmHg 47%
    09:00 -4°C° 0 mm 1 mps 766 mmHg 46%
    10:00 -3°C° 0 mm 1 mps 767 mmHg 44%
    11:00 -2°C° 0 mm 1 mps 766 mmHg 42%
    12:00 -1°C° 0 mm 1 mps 766 mmHg 40%
    13:00 0°C° 0 mm 1 mps 766 mmHg 38%
    14:00 -1°C° 0 mm 1 mps 766 mmHg 41%
    15:00 -2°C° 0 mm 1 mps 766 mmHg 44%
    16:00 -2°C° 0 mm 1 mps 766 mmHg 47%
    17:00 -3°C° 0 mm 1 mps 766 mmHg 48%
    18:00 -3°C° 0 mm 1 mps 765 mmHg 48%
    19:00 -4°C° 0 mm 1 mps 765 mmHg 49%
    20:00 -4°C° 0 mm 1 mps 765 mmHg 50%
    21:00 -4°C° 0 mm 1 mps 765 mmHg 50%
    22:00 -6°C° 0 mm 2 mps 765 mmHg 51%
    23:00 -4°C° 0 mm 1 mps 764 mmHg 52%

    17 November, Saturday

    Time Temperature Precipitation Wind Pressure Humidity
    00:00 -4°C° 0 mm 1 mps 764 mmHg 53%
    01:00 -4°C° 0 mm 1 mps 764 mmHg 54%
    02:00 -4°C° 0 mm 1 mps 764 mmHg 54%
    03:00 -4°C° 0 mm 1 mps 763 mmHg 54%
    04:00 -4°C° 0 mm 1 mps 763 mmHg 53%
    05:00 -6°C° 0 mm 1 mps 763 mmHg 52%
    06:00 -6°C° 0 mm 1 mps 762 mmHg 50%
    07:00 -6°C° 0 mm 1 mps 762 mmHg 49%
    08:00 -4°C° 0 mm 1 mps 762 mmHg 46%
    09:00 -3°C° 0 mm 1 mps 761 mmHg 43%
    10:00 -3°C° 0 mm 1 mps 761 mmHg 41%
    11:00 -4°C° 0 mm 2 mps 761 mmHg 38%
    12:00 -3°C° 0 mm 2 mps 760 mmHg 36%
    13:00 -2°C° 0 mm 2 mps 759 mmHg 34%
    14:00 -3°C° 0 mm 2 mps 759 mmHg 36%
    15:00 -3°C° 0 mm 2 mps 759 mmHg 39%
    16:00 -4°C° 0 mm 2 mps 758 mmHg 41%
    17:00 -4°C° 0 mm 2 mps 758 mmHg 41%
    18:00 -4°C° 0 mm 2 mps 758 mmHg 41%
    19:00 -5°C° 0 mm 2 mps 757 mmHg 42%
    20:00 -5°C° 0 mm 2 mps 757 mmHg 42%
    21:00 -5°C° 0 mm 2 mps 757 mmHg 42%
    22:00 -5°C° 0 mm 2 mps 756 mmHg 42%
    23:00 -5°C° 0 mm 2 mps 756 mmHg 42%

    18 November, Sunday

    Time Temperature Precipitation Wind Pressure Humidity
    00:00 -5°C° 0 mm 2 mps 756 mmHg 43%
    01:00 -5°C° 0 mm 2 mps 755 mmHg 43%
    02:00 -6°C° 0 mm 2 mps 755 mmHg 42%
    03:00 -6°C° 0 mm 2 mps 755 mmHg 42%
    04:00 -6°C° 0 mm 2 mps 755 mmHg 42%
    05:00 -6°C° 0 mm 2 mps 755 mmHg 41%
    06:00 -6°C° 0 mm 2 mps 754 mmHg 41%
    07:00 -6°C° 0 mm 2 mps 754 mmHg 41%
    08:00 -6°C° 0 mm 2 mps 754 mmHg 39%
    09:00 -5°C° 0 mm 2 mps 754 mmHg 38%
    10:00 -4°C° 0 mm 2 mps 754 mmHg 37%
    11:00 -4°C° 0 mm 2 mps 754 mmHg 35%
    12:00 -3°C° 0 mm 2 mps 754 mmHg 34%
    13:00 -2°C° 0 mm 2 mps 754 mmHg 32%
    14:00 -2°C° 0 mm 2 mps 754 mmHg 34%
    15:00 -3°C° 0 mm 2 mps 754 mmHg 36%
    16:00 -4°C° 0 mm 2 mps 754 mmHg 38%
    17:00 -4°C° 0 mm 2 mps 754 mmHg 38%
    18:00 -2°C° 0 mm 1 mps 754 mmHg 39%
    19:00 -3°C° 0 mm 1 mps 754 mmHg 40%
    20:00 -3°C° 0 mm 1 mps 754 mmHg 40%
    21:00 -3°C° 0 mm 1 mps 754 mmHg 40%
    22:00 -3°C° 0 mm 1 mps 754 mmHg 41%
    23:00 -3°C° 0 mm 1 mps 754 mmHg 41%

    19 November, Monday

    Time Temperature Precipitation Wind Pressure Humidity
    00:00 -3°C° 0 mm 1 mps 754 mmHg 42%
    01:00 -3°C° 0 mm 1 mps 755 mmHg 42%
    02:00 -3°C° 0 mm 1 mps 755 mmHg 42%
    03:00 -3°C° 0 mm 1 mps 755 mmHg 43%
    04:00 -3°C° 0 mm 1 mps 755 mmHg 43%
    05:00 -3°C° 0 mm 1 mps 755 mmHg 44%
    06:00 -5°C° 0 mm 2 mps 755 mmHg 44%
    07:00 -4°C° 0 mm 2 mps 755 mmHg 45%
    08:00 -4°C° 0 mm 2 mps 755 mmHg 45%
    09:00 -3°C° 0 mm 2 mps 755 mmHg 45%
    10:00 -3°C° 0 mm 2 mps 755 mmHg 45%
    11:00 -2°C° 0 mm 2 mps 755 mmHg 44%
    12:00 -1°C° 0 mm 2 mps 755 mmHg 44%
    13:00 +1°C° 0 mm 2 mps 755 mmHg 44%
    14:00 -1°C° 0 mm 2 mps 755 mmHg 47%
    15:00 -1°C° 0 mm 2 mps 755 mmHg 50%
    16:00 -2°C° 0 mm 2 mps 755 mmHg 53%
    17:00 -2°C° 0 mm 2 mps 755 mmHg 54%
    18:00 -2°C° 0 mm 2 mps 755 mmHg 56%
    19:00 -2°C° 0 mm 2 mps 755 mmHg 58%
    20:00 -2°C° 0 mm 2 mps 755 mmHg 59%
    21:00 -3°C° 0 mm 2 mps 755 mmHg 60%
    22:00 -3°C° 0 mm 2 mps 755 mmHg 61%
    23:00 -3°C° 0 mm 2 mps 755 mmHg 62%
    Show more